COSMOS 1857

Satellite information

Favourite Embed

Satellite Type and Status

PAYLOADIN ORBIT

Key statistics

Satellite COSMOS 1857 at a glance.

Uptime

14015

Days in orbit

Revolutions

≈ 12.5

Per day

Orbit

LEO

Low Earth Orbit

Inclination

74.0

Latest

Satellite identification and parameters

Extended collection of information and parameters for COSMOS 1857.

Object identification

Identified? True

Debris? False

Object name: COSMOS 1857

International designator: 1987-051F

Object number (NORAD): 18118

Object ID (CCSDS): 18118

Country: COMMONWEALTH OF INDEPENDENT STATES (CIS)

Current information (Y/N): Y

RCS size: MEDIUM

Orbital parameters

Period: 114.808 minutes

Inclination: 74.0009 deg

SMA: 7824.825 km

Apoapsis: 1476.505 km

Periapsis: 1416.876 km

RAAN: 102.8377 deg

Eccentricy: 0.00381023

Argument of periapsis: 157.5345 deg

Mean anomaly: 202.7387 deg

Mean motion: 12.54269251 rev/day

Mean motion (dot): -0.00000003 rev/day2

B* drag term: 0.00008093216 1/REarth

Two-line elements (TLE)

Creation date: Oct. 28, 2025, 7:11 p.m.

Reference frame: TEME

Reference center: EARTH

Epoch: Oct. 28, 2025, 11:24 a.m. UTC

TLE line 0: 0 COSMOS 1857

TLE line 1: 1 18118U 87051F 25301.47529451 -.00000003 00000-0 80932-4 0 9998

TLE line 2: 2 18118 74.0009 102.8377 0038102 157.5345 202.7387 12.54269251756726

Live tracking on map

Real-time ground track for satellite COSMOS 1857.

In-orbit conjunctions

There are no conjunctions computed for COSMOS 1857, at the moment. Check back to stay up to date, as we update our databases every day.

Go to all conjunctions

Associated space launch

Military communications satellites

COSMOS 1857 was lifted into orbit during the mission ‘Kosmos-3M | Strela-1M 321-328’, on board a Kosmos-3M space rocket.

The launch took place on June 16, 1987, 5:51 p.m. from 132/1 (132L).

For more information about the launch, click the button.

Launch to space Kosmos-3M | Strela-1M 321-328
Kosmos-3M | Strela-1M 321-328

Agency: N/A

Status: Launch Successful

Launch date: June 16, 1987, 5:51 p.m. UTC

Rocket: Kosmos-3M

Launch pad: 132/1 (132L)

Location: Plesetsk Cosmodrome, Russian Federation

...

Latest news about this satellite

There are no fresh news available about this satellite. Check back as we update our databases every day.


Newsletter sign-up

Weekly statistics, charts and insights to help you stay on top of the space industry.